When you browse on this site, cookies collect data to enhance your experience and personalize the content and advertising you see.
Visit our Privacy Policy to learn more. By continuing to use the site, you agree to this use of cookies and data.
  • In Lithuania
  • List of Countries
  • For 7 days
  • Water Temperature
  • Weather Map
  • Weather Widgets
  • user-avatar
    Login

    Hourly Weather Arwayheer

    Today, 11 November, Monday

    Time Temperature Precipitation Wind Pressure Humidity
    00:00 -2°C° 0 mm 1 mps 601 mmHg 58%
    01:00 -2°C° 0 mm 1 mps 601 mmHg 58%
    02:00 -2°C° 0 mm 1 mps 601 mmHg 59%
    03:00 -2°C° 0 mm 1 mps 600 mmHg 59%
    04:00 -3°C° 0 mm 1 mps 600 mmHg 60%
    05:00 -3°C° 0 mm 1 mps 600 mmHg 61%
    06:00 -3°C° 0 mm 1 mps 600 mmHg 61%
    07:00 -3°C° 0 mm 1 mps 600 mmHg 62%
    08:00 -3°C° 0 mm 1 mps 600 mmHg 63%
    09:00 -3°C° 0 mm 1 mps 600 mmHg 64%
    10:00 -4°C° 0 mm 2 mps 600 mmHg 65%
    11:00 -3°C° 0 mm 2 mps 600 mmHg 62%
    12:00 -2°C° 0 mm 3 mps 600 mmHg 59%
    13:00 -2°C° 0 mm 4 mps 601 mmHg 54%
    14:00 -2°C° 0 mm 4 mps 601 mmHg 53%
    15:00 -2°C° 0 mm 4 mps 600 mmHg 51%
    16:00 -2°C° 0 mm 4 mps 600 mmHg 50%
    17:00 -3°C° 0 mm 4 mps 600 mmHg 50%
    18:00 -4°C° 0 mm 4 mps 600 mmHg 50%
    19:00 -4°C° 0 mm 4 mps 600 mmHg 51%
    20:00 -5°C° 0 mm 4 mps 600 mmHg 50%
    21:00 -5°C° 0 mm 4 mps 600 mmHg 49%
    22:00 -7°C° 0 mm 4 mps 601 mmHg 48%
    23:00 -8°C° 0 mm 5 mps 601 mmHg 50%

    Tomorrow, 12 November, Tuesday

    Time Temperature Precipitation Wind Pressure Humidity
    00:00 -8°C° 0 mm 5 mps 602 mmHg 52%
    01:00 -10°C° 0 mm 6 mps 603 mmHg 53%
    02:00 -13°C° 0 mm 7 mps 603 mmHg 55%
    03:00 -15°C° 0 mm 8 mps 604 mmHg 56%
    04:00 -18°C° 0 mm 10 mps 604 mmHg 58%
    05:00 -19°C° 0 mm 10 mps 605 mmHg 55%
    06:00 -20°C° 0 mm 10 mps 605 mmHg 53%
    07:00 -22°C° 0 mm 10 mps 606 mmHg 50%
    08:00 -22°C° 0 mm 10 mps 606 mmHg 46%
    09:00 -22°C° 0 mm 11 mps 607 mmHg 42%
    10:00 -22°C° 0 mm 11 mps 608 mmHg 38%
    11:00 -22°C° 0 mm 11 mps 608 mmHg 38%
    12:00 -22°C° 0 mm 10 mps 608 mmHg 37%
    13:00 -21°C° 0 mm 9 mps 609 mmHg 37%
    14:00 -21°C° 0 mm 9 mps 609 mmHg 39%
    15:00 -22°C° 0 mm 9 mps 609 mmHg 40%
    16:00 -22°C° 0 mm 8 mps 609 mmHg 42%
    17:00 -23°C° 0 mm 8 mps 609 mmHg 40%
    18:00 -23°C° 0 mm 8 mps 610 mmHg 38%
    19:00 -24°C° 0 mm 7 mps 610 mmHg 36%
    20:00 -23°C° 0 mm 6 mps 610 mmHg 36%
    21:00 -22°C° 0 mm 5 mps 611 mmHg 37%
    22:00 -21°C° 0 mm 3 mps 611 mmHg 37%
    23:00 -22°C° 0 mm 4 mps 610 mmHg 37%

    Day after tomorrow, 13 November, Wednesday

    Time Temperature Precipitation Wind Pressure Humidity
    00:00 -22°C° 0 mm 4 mps 610 mmHg 38%
    01:00 -22°C° 0 mm 5 mps 610 mmHg 38%
    02:00 -22°C° 0 mm 4 mps 609 mmHg 38%
    03:00 -21°C° 0 mm 3 mps 608 mmHg 38%
    04:00 -19°C° 0 mm 2 mps 608 mmHg 37%
    05:00 -17°C° 0 mm 1 mps 607 mmHg 38%
    06:00 -17°C° 0 mm 1 mps 607 mmHg 38%
    07:00 -17°C° 0 mm 1 mps 606 mmHg 39%
    08:00 -16°C° 0 mm 1 mps 606 mmHg 35%
    09:00 -15°C° 0 mm 1 mps 606 mmHg 31%
    10:00 -14°C° 0 mm 1 mps 606 mmHg 27%
    11:00 -12°C° 0 mm 1 mps 606 mmHg 26%
    12:00 -12°C° 0 mm 2 mps 606 mmHg 26%
    13:00 -9°C° 0 mm 2 mps 606 mmHg 25%
    14:00 -9°C° 0 mm 2 mps 605 mmHg 27%
    15:00 -9°C° 0 mm 2 mps 605 mmHg 30%
    16:00 -9°C° 0 mm 2 mps 604 mmHg 32%
    17:00 -8°C° 0 mm 1 mps 604 mmHg 33%
    18:00 -8°C° 0 mm 1 mps 603 mmHg 35%
    19:00 -9°C° 0 mm 1 mps 603 mmHg 37%
    20:00 -9°C° 0 mm 1 mps 603 mmHg 39%
    21:00 -9°C° 0 mm 1 mps 602 mmHg 41%
    22:00 -8°C° 0 mm 1 mps 602 mmHg 43%
    23:00 -8°C° 0 mm 1 mps 602 mmHg 46%

    14 November, Thursday

    Time Temperature Precipitation Wind Pressure Humidity
    00:00 -9°C° 0 mm 2 mps 602 mmHg 48%
    01:00 -9°C° 0 mm 2 mps 601 mmHg 50%
    02:00 -9°C° 0 mm 2 mps 601 mmHg 52%
    03:00 -9°C° 0 mm 2 mps 601 mmHg 55%
    04:00 -9°C° 0 mm 2 mps 601 mmHg 57%
    05:00 -9°C° 0 mm 2 mps 601 mmHg 56%
    06:00 -9°C° 0 mm 2 mps 602 mmHg 55%
    07:00 -9°C° 0 mm 2 mps 602 mmHg 55%
    08:00 -8°C° 0 mm 2 mps 602 mmHg 50%
    09:00 -6°C° 0 mm 2 mps 603 mmHg 45%
    10:00 -3°C° 0 mm 1 mps 603 mmHg 39%
    11:00 -4°C° 0 mm 2 mps 603 mmHg 36%
    12:00 -3°C° 0 mm 2 mps 603 mmHg 33%
    13:00 -2°C° 0 mm 2 mps 603 mmHg 30%
    14:00 -3°C° 0 mm 2 mps 602 mmHg 35%
    15:00 -4°C° 0 mm 2 mps 602 mmHg 41%
    16:00 -5°C° 0 mm 2 mps 601 mmHg 46%
    17:00 -4°C° 0 mm 1 mps 601 mmHg 49%
    18:00 -6°C° 0 mm 1 mps 601 mmHg 53%
    19:00 -7°C° 0 mm 0 mps 600 mmHg 56%
    20:00 -7°C° 0 mm 1 mps 600 mmHg 58%
    21:00 -8°C° 0 mm 1 mps 600 mmHg 59%
    22:00 -8°C° 0 mm 1 mps 600 mmHg 60%
    23:00 -8°C° 0 mm 1 mps 600 mmHg 61%

    15 November, Friday

    Time Temperature Precipitation Wind Pressure Humidity
    00:00 -8°C° 0 mm 1 mps 599 mmHg 62%
    01:00 -9°C° 0 mm 1 mps 599 mmHg 63%
    02:00 -9°C° 0 mm 1 mps 599 mmHg 64%
    03:00 -9°C° 0 mm 1 mps 598 mmHg 65%
    04:00 -9°C° 0 mm 0 mps 598 mmHg 66%
    05:00 -10°C° 0 mm 0 mps 598 mmHg 66%
    06:00 -10°C° 0 mm 0 mps 598 mmHg 66%
    07:00 -10°C° 0 mm 0 mps 598 mmHg 66%
    08:00 -9°C° 0 mm 0 mps 598 mmHg 60%
    09:00 -7°C° 0 mm 1 mps 599 mmHg 53%
    10:00 -6°C° 0 mm 1 mps 599 mmHg 47%
    11:00 -6°C° 0 mm 2 mps 599 mmHg 43%
    12:00 -6°C° 0 mm 3 mps 599 mmHg 39%
    13:00 -5°C° 0 mm 4 mps 599 mmHg 36%
    14:00 -5°C° 0 mm 4 mps 599 mmHg 36%
    15:00 -5°C° 0 mm 4 mps 598 mmHg 37%
    16:00 -7°C° 0 mm 4 mps 598 mmHg 37%
    17:00 -7°C° 0 mm 4 mps 598 mmHg 38%
    18:00 -8°C° 0 mm 4 mps 598 mmHg 40%
    19:00 -9°C° 0 mm 4 mps 598 mmHg 41%
    20:00 -8°C° 0 mm 3 mps 598 mmHg 43%
    21:00 -8°C° 0 mm 3 mps 597 mmHg 45%
    22:00 -8°C° 0 mm 3 mps 597 mmHg 48%
    23:00 -9°C° 0 mm 3 mps 597 mmHg 49%

    16 November, Saturday

    Time Temperature Precipitation Wind Pressure Humidity
    00:00 -9°C° 0 mm 3 mps 597 mmHg 51%
    01:00 -9°C° 0 mm 3 mps 598 mmHg 53%
    02:00 -10°C° 0 mm 3 mps 598 mmHg 53%
    03:00 -11°C° 0 mm 4 mps 598 mmHg 53%
    04:00 -11°C° 0 mm 4 mps 599 mmHg 53%
    05:00 -12°C° 0 mm 4 mps 599 mmHg 55%
    06:00 -14°C° 0 mm 4 mps 599 mmHg 56%
    07:00 -14°C° 0 mm 4 mps 600 mmHg 58%
    08:00 -14°C° 0 mm 4 mps 601 mmHg 56%
    09:00 -15°C° 0 mm 5 mps 601 mmHg 54%
    10:00 -16°C° 0 mm 6 mps 602 mmHg 51%
    11:00 -18°C° 0 mm 7 mps 602 mmHg 52%
    12:00 -19°C° 0 mm 8 mps 602 mmHg 53%
    13:00 -21°C° 0 mm 9 mps 602 mmHg 53%
    14:00 -22°C° 0 mm 9 mps 603 mmHg 55%
    15:00 -22°C° 0 mm 8 mps 604 mmHg 56%
    16:00 -22°C° 0 mm 8 mps 604 mmHg 58%
    17:00 -23°C° 0 mm 8 mps 605 mmHg 60%
    18:00 -24°C° 0 mm 8 mps 606 mmHg 62%
    19:00 -24°C° 0 mm 8 mps 607 mmHg 65%
    20:00 -26°C° 0 mm 8 mps 608 mmHg 61%
    21:00 -27°C° 0 mm 8 mps 608 mmHg 58%
    22:00 -27°C° 0 mm 9 mps 609 mmHg 54%
    23:00 -28°C° 0 mm 9 mps 609 mmHg 48%
    Show more